Location: DARK SKY Beskydy - Park tmavé oblohy, www.darkskybeskydy.cz
(49.4926°N, 18.5016°E)
Time: 02:43:52
(UTC+02:00)

A-11 Canister half - Pass Details

Date: 02 March 2024
Orbit: 1513 x 1686 km, 47.2° (Epoch: 24 April)

Event Time Altitude Azimuth Distance (km) Brightness Sun altitude
Rises 05:21:20 0° 286° (WNW) 4,930 - -11.3°
Reaches altitude 10° 05:24:36 10° 282° (WNW) 3,927 - -10.8°
Exits shadow 05:25:00 11° 281° (WNW) 3,807 10.4 -10.7°
Maximum altitude 05:34:15 54° 209° (SSW) 1,921 9.4 -9.2°
Drops below altitude 10° 05:43:33 10° 136° (SE) 3,795 11.8 -7.7°
Sets 05:46:40 0° 132° (SE) 4,754 12.5 -7.2°
